| time (UTC) | temp C | wind direction | speed KPH | gust KPH | rain 1hr cm | rain 24hr cm | rain mn cm | humidity % | barometer mb |
| 20260904111858 | 7 | 123 | 0.0 | 0.0 | 0.00 | 0.00 | 0.00 | 79 | 1008.3 |
| 20260904111115 | 7 | 123 | 0.0 | 0.0 | 0.00 | 0.00 | 0.00 | 79 | 1008.1 |
| 20260904110611 | 7 | 123 | 0.0 | 0.0 | 0.00 | 0.00 | 0.00 | 79 | 1008.2 |
| 20260904110104 | 7 | 123 | 0.0 | 0.0 | 0.00 | 0.00 | 0.00 | 80 | 1008.1 |
| 20260904105600 | 7 | 123 | 0.0 | 3.2 | 0.00 | 0.00 | 0.00 | 80 | 1008.1 |
| 20260904105054 | 7 | 123 | 0.0 | 3.2 | 0.00 | 0.00 | 0.00 | 79 | 1008.1 |
| 20260904104545 | 7 | 122 | 1.6 | 6.4 | 0.00 | 0.00 | 0.00 | 79 | 1008.2 |
| 20260904104308 | 7 | 121 | 1.6 | 6.4 | 0.00 | 0.00 | 0.00 | 79 | 1008.1 |
| 20260904103534 | 7 | 114 | 0.0 | 4.8 | 0.00 | 0.00 | 0.00 | 79 | 1008.1 |
| 20260904103301 | 7 | 102 | 0.0 | 3.2 | 0.00 | 0.00 | 0.00 | 80 | 1008.1 |
| 20260904102521 | 7 | 95 | 0.0 | 1.6 | 0.00 | 0.00 | 0.00 | 80 | 1008.1 |
| 20260904102017 | 8 | 95 | 0.0 | 1.6 | 0.00 | 0.00 | 0.00 | 79 | 1008.0 |
| 20260904101510 | 8 | 95 | 0.0 | 6.4 | 0.00 | 0.00 | 0.00 | 78 | 1008.1 |
| 20260904101004 | 8 | 95 | 0.0 | 6.4 | 0.00 | 0.00 | 0.00 | 78 | 1007.9 |
| 20260904100500 | 8 | 76 | 0.0 | 1.6 | 0.00 | 0.00 | 0.00 | 78 | 1007.9 |
| 20260904095955 | 8 | 76 | 0.0 | 3.2 | 0.00 | 0.00 | 0.00 | 78 | 1007.9 |
| 20260904095445 | 8 | 76 | 0.0 | 3.2 | 0.00 | 0.00 | 0.00 | 78 | 1007.9 |
| 20260904094940 | 8 | 74 | 0.0 | 0.0 | 0.00 | 0.00 | 0.00 | 78 | 1007.8 |
| 20260904094433 | 8 | 74 | 0.0 | 3.2 | 0.00 | 0.00 | 0.00 | 78 | 1008.0 |
| 20260904094158 | 8 | 74 | 0.0 | 3.2 | 0.00 | 0.00 | 0.00 | 78 | 1008.0 |
| 20260904093422 | 8 | 74 | 0.0 | 3.2 | 0.00 | 0.00 | 0.00 | 78 | 1008.0 |
| 20260904092917 | 8 | 74 | 0.0 | 3.2 | 0.00 | 0.00 | 0.00 | 78 | 1008.0 |
| 20260904092401 | 8 | 74 | 0.0 | 3.2 | 0.00 | 0.00 | 0.00 | 78 | 1008.1 |
| 20260904092139 | 8 | 70 | 0.0 | 0.0 | 0.00 | 0.00 | 0.00 | 77 | 1008.0 |
| 20260904091638 | 8 | 70 | 0.0 | 0.0 | 0.00 | 0.00 | 0.00 | 77 | 1008.0 |
| 20260904090910 | 8 | 70 | 0.0 | 0.0 | 0.00 | 0.00 | 0.00 | 76 | 1008.1 |
| 20260904090641 | 8 | 70 | 0.0 | 1.6 | 0.00 | 0.00 | 0.00 | 76 | 1008.1 |
| 20260904085904 | 8 | 70 | 0.0 | 1.6 | 0.00 | 0.00 | 0.00 | 75 | 1008.0 |
| 20260904085403 | 8 | 70 | 0.0 | 1.6 | 0.00 | 0.00 | 0.00 | 75 | 1008.0 |
| 20260904085135 | 8 | 70 | 0.0 | 0.0 | 0.00 | 0.00 | 0.00 | 75 | 1008.0 |
| 20260904084403 | 8 | 70 | 0.0 | 0.0 | 0.00 | 0.00 | 0.00 | 75 | 1008.0 |
| 20260904083900 | 8 | 70 | 0.0 | 0.0 | 0.00 | 0.00 | 0.00 | 75 | 1008.0 |
| 20260904083405 | 8 | 70 | 0.0 | 0.0 | 0.00 | 0.00 | 0.00 | 75 | 1007.9 |
| 20260904082924 | 8 | 70 | 0.0 | 0.0 | 0.00 | 0.00 | 0.00 | 75 | 1007.9 |
| 20260904082920 | 8 | 70 | 0.0 | 0.0 | 0.00 | 0.00 | 0.00 | 75 | 1007.9 |
| 20260904081859 | 8 | 70 | 0.0 | 0.0 | 0.00 | 0.00 | 0.00 | 75 | 1007.9 |
| 20260904081400 | 8 | 70 | 0.0 | 0.0 | 0.00 | 0.00 | 0.00 | 75 | 1007.9 |
| 20260904080900 | 8 | 70 | 0.0 | 0.0 | 0.00 | 0.00 | 0.00 | 75 | 1007.9 |
| 20260904080358 | 8 | 70 | 0.0 | 0.0 | 0.00 | 0.00 | 0.00 | 76 | 1007.9 |
| 20260904075859 | 8 | 70 | 0.0 | 0.0 | 0.00 | 0.00 | 0.00 | 75 | 1007.9 |
| 20260904075359 | 8 | 70 | 0.0 | 1.6 | 0.00 | 0.00 | 0.00 | 76 | 1007.8 |
| 20260904074857 | 8 | 70 | 0.0 | 1.6 | 0.00 | 0.00 | 0.00 | 75 | 1007.9 |
| 20260904074355 | 8 | 70 | 0.0 | 0.0 | 0.00 | 0.00 | 0.00 | 75 | 1007.9 |
| 20260904073847 | 8 | 70 | 0.0 | 0.0 | 0.00 | 0.00 | 0.00 | 75 | 1007.8 |
| 20260904073340 | 9 | 70 | 0.0 | 1.6 | 0.00 | 0.00 | 0.00 | 75 | 1007.8 |
| 20260904072834 | 9 | 70 | 0.0 | 1.6 | 0.00 | 0.00 | 0.00 | 74 | 1007.7 |
| 20260904072327 | 9 | 70 | 0.0 | 4.8 | 0.00 | 0.00 | 0.00 | 74 | 1007.5 |
| 20260904071823 | 10 | 70 | 0.0 | 4.8 | 0.00 | 0.00 | 0.00 | 73 | 1007.5 |
| 20260904071316 | 10 | 331 | 0.0 | 1.6 | 0.00 | 0.00 | 0.00 | 73 | 1007.7 |
| 20260904070810 | 10 | 330 | 0.0 | 1.6 | 0.00 | 0.00 | 0.00 | 72 | 1007.7 |
| 20260904070305 | 10 | 330 | 0.0 | 1.6 | 0.00 | 0.00 | 0.00 | 72 | 1007.7 |
| 20260904070033 | 9 | 330 | 0.0 | 0.0 | 0.00 | 0.00 | 0.00 | 71 | 1007.8 |
| 20260904065255 | 9 | 330 | 0.0 | 0.0 | 0.00 | 0.00 | 0.00 | 72 | 1007.8 |
| 20260904064747 | 9 | 330 | 0.0 | 1.6 | 0.00 | 0.00 | 0.00 | 72 | 1007.8 |
| 20260904064243 | 9 | 330 | 0.0 | 0.0 | 0.00 | 0.00 | 0.00 | 72 | 1007.8 |
| 20260904063736 | 9 | 330 | 0.0 | 0.0 | 0.00 | 0.00 | 0.00 | 71 | 1007.7 |
| 20260904063458 | 9 | 330 | 0.0 | 0.0 | 0.00 | 0.00 | 0.00 | 71 | 1007.7 |
| 20260904062723 | 9 | 330 | 0.0 | 0.0 | 0.00 | 0.00 | 0.00 | 71 | 1007.7 |
| 20260904062217 | 9 | 330 | 0.0 | 0.0 | 0.00 | 0.00 | 0.00 | 71 | 1007.7 |
| 20260904061712 | 9 | 331 | 0.0 | 0.0 | 0.00 | 0.00 | 0.00 | 71 | 1007.7 |
| 20260904061208 | 10 | 331 | 0.0 | 0.0 | 0.00 | 0.00 | 0.00 | 70 | 1007.5 |
| 20260904060937 | 10 | 331 | 0.0 | 0.0 | 0.00 | 0.00 | 0.00 | 71 | 1007.5 |
| 20260904060154 | 10 | 331 | 0.0 | 0.0 | 0.00 | 0.00 | 0.00 | 71 | 1007.5 |
| 20260904055651 | 10 | 331 | 0.0 | 0.0 | 0.00 | 0.00 | 0.00 | 70 | 1007.7 |
| 20260904055143 | 10 | 331 | 0.0 | 0.0 | 0.00 | 0.00 | 0.00 | 70 | 1007.5 |
| 20260904054636 | 10 | 331 | 0.0 | 0.0 | 0.00 | 0.00 | 0.00 | 70 | 1007.5 |
| 20260904054130 | 10 | 331 | 0.0 | 0.0 | 0.00 | 0.00 | 0.00 | 70 | 1007.7 |
| 20260904053623 | 10 | 331 | 0.0 | 0.0 | 0.00 | 0.00 | 0.00 | 70 | 1007.7 |
| 20260904053121 | 10 | 331 | 0.0 | 0.0 | 0.00 | 0.00 | 0.00 | 69 | 1007.8 |
| 20260904052843 | 10 | 331 | 0.0 | 0.0 | 0.00 | 0.00 | 0.00 | 69 | 1007.8 |
| 20260904052110 | 10 | 331 | 0.0 | 0.0 | 0.00 | 0.00 | 0.00 | 69 | 1007.7 |
| 20260904051833 | 10 | 331 | 0.0 | 0.0 | 0.00 | 0.00 | 0.00 | 68 | 1007.7 |
| 20260904051110 | 10 | 331 | 0.0 | 3.2 | 0.00 | 0.00 | 0.00 | 68 | 1007.8 |
| 20260904051102 | 10 | 331 | 0.0 | 3.2 | 0.00 | 0.00 | 0.00 | 68 | 1007.8 |
| 20260904050041 | 11 | 330 | 1.6 | 6.4 | 0.00 | 0.00 | 0.00 | 68 | 1007.7 |
| 20260904045536 | 11 | 330 | 3.2 | 6.4 | 0.00 | 0.00 | 0.00 | 67 | 1007.7 |
| 20260904045030 | 11 | 329 | 3.2 | 9.7 | 0.00 | 0.03 | 0.00 | 67 | 1007.7 |
| 20260904044524 | 11 | 332 | 3.2 | 9.7 | 0.00 | 0.03 | 0.00 | 66 | 1007.4 |
| 20260904044018 | 11 | 338 | 3.2 | 11.3 | 0.00 | 0.03 | 0.00 | 66 | 1007.4 |
| 20260904043511 | 11 | 332 | 3.2 | 11.3 | 0.00 | 0.03 | 0.00 | 66 | 1007.5 |
| 20260904043021 | 11 | 311 | 4.8 | 9.7 | 0.00 | 0.03 | 0.00 | 66 | 1007.4 |
| 20260904043016 | 11 | 315 | 4.8 | 11.3 | 0.00 | 0.03 | 0.00 | 66 | 1007.4 |
| 20260904041955 | 11 | 337 | 3.2 | 9.7 | 0.00 | 0.03 | 0.00 | 65 | 1007.4 |
| 20260904041448 | 11 | 318 | 4.8 | 11.3 | 0.00 | 0.03 | 0.00 | 65 | 1007.4 |
| 20260904041215 | 11 | 315 | 4.8 | 11.3 | 0.00 | 0.03 | 0.00 | 65 | 1007.4 |
| 20260904040436 | 11 | 308 | 4.8 | 11.3 | 0.00 | 0.03 | 0.00 | 64 | 1007.4 |
| 20260904035930 | 11 | 290 | 6.4 | 14.5 | 0.00 | 0.03 | 0.00 | 64 | 1007.3 |
| 20260904035654 | 11 | 310 | 6.4 | 17.7 | 0.00 | 0.03 | 0.00 | 63 | 1007.4 |
| 20260904034918 | 11 | 307 | 4.8 | 17.7 | 0.00 | 0.03 | 0.00 | 63 | 1007.5 |
| 20260904034412 | 12 | 313 | 6.4 | 14.5 | 0.00 | 0.03 | 0.00 | 63 | 1007.4 |
| 20260904034130 | 12 | 309 | 6.4 | 14.5 | 0.00 | 0.03 | 0.00 | 62 | 1007.3 |
| 20260904033400 | 12 | 317 | 6.4 | 14.5 | 0.00 | 0.03 | 0.00 | 62 | 1007.2 |
| 20260904032854 | 12 | 284 | 4.8 | 16.1 | 0.00 | 0.03 | 0.00 | 62 | 1007.1 |
| 20260904032348 | 12 | 258 | 3.2 | 16.1 | 0.00 | 0.03 | 0.00 | 62 | 1006.9 |
| 20260904032116 | 12 | 314 | 3.2 | 11.3 | 0.00 | 0.03 | 0.00 | 61 | 1006.9 |
| 20260904031342 | 12 | 298 | 4.8 | 16.1 | 0.00 | 0.03 | 0.00 | 61 | 1006.6 |
| 20260904030842 | 12 | 307 | 6.4 | 19.3 | 0.00 | 0.03 | 0.00 | 61 | 1006.6 |
| 20260904030342 | 12 | 348 | 8.0 | 19.3 | 0.00 | 0.03 | 0.00 | 60 | 1006.6 |
| 20260904025841 | 12 | 321 | 8.0 | 16.1 | 0.00 | 0.03 | 0.00 | 59 | 1006.6 |
| 20260904025614 | 12 | 309 | 8.0 | 16.1 | 0.00 | 0.03 | 0.00 | 59 | 1006.6 |
| 20260904024841 | 12 | 292 | 6.4 | 16.1 | 0.00 | 0.03 | 0.00 | 58 | 1006.6 |
| 20260904024342 | 13 | 304 | 6.4 | 16.1 | 0.00 | 0.03 | 0.00 | 57 | 1006.6 |
| 20260904024123 | 13 | 309 | 6.4 | 16.1 | 0.00 | 0.03 | 0.00 | 56 | 1006.5 |
| 20260904023403 | 13 | 301 | 6.4 | 16.1 | 0.00 | 0.03 | 0.00 | 55 | 1006.5 |
| 20260904023359 | 13 | 324 | 6.4 | 16.1 | 0.00 | 0.03 | 0.00 | 56 | 1006.5 |
| 20260904022343 | 13 | 318 | 6.4 | 12.9 | 0.00 | 0.03 | 0.00 | 55 | 1006.4 |
| 20260904021842 | 13 | 342 | 6.4 | 14.5 | 0.00 | 0.03 | 0.00 | 55 | 1006.4 |
| 20260904021403 | 13 | 330 | 4.8 | 14.5 | 0.00 | 0.03 | 0.00 | 54 | 1006.4 |
| 20260904021357 | 13 | 325 | 4.8 | 14.5 | 0.00 | 0.03 | 0.00 | 55 | 1006.4 |
| 20260904020343 | 13 | 317 | 6.4 | 14.5 | 0.00 | 0.03 | 0.00 | 54 | 1006.4 |
| 20260904015841 | 13 | 298 | 6.4 | 14.5 | 0.00 | 0.03 | 0.00 | 53 | 1006.4 |
| 20260904015343 | 14 | 260 | 4.8 | 14.5 | 0.00 | 0.03 | 0.00 | 53 | 1006.4 |
| 20260904014841 | 14 | 312 | 4.8 | 16.1 | 0.00 | 0.03 | 0.00 | 52 | 1006.2 |
| 20260904014335 | 14 | 319 | 4.8 | 16.1 | 0.00 | 0.03 | 0.00 | 51 | 1006.4 |
| 20260904013829 | 14 | 340 | 3.2 | 14.5 | 0.00 | 0.03 | 0.00 | 50 | 1006.1 |
| 20260904013323 | 15 | 323 | 3.2 | 9.7 | 0.00 | 0.03 | 0.00 | 49 | 1006.1 |
| 20260904012816 | 15 | 326 | 3.2 | 12.9 | 0.00 | 0.03 | 0.00 | 48 | 1006.1 |
| 20260904012309 | 15 | 295 | 4.8 | 12.9 | 0.00 | 0.03 | 0.00 | 47 | 1006.1 |
| 20260904011803 | 15 | 325 | 4.8 | 12.9 | 0.00 | 0.05 | 0.00 | 47 | 1006.0 |
| 20260904011258 | 15 | 328 | 3.2 | 12.9 | 0.00 | 0.05 | 0.00 | 48 | 1006.0 |
| 20260904010751 | 15 | 331 | 1.6 | 12.9 | 0.00 | 0.05 | 0.00 | 47 | 1006.1 |
| 20260904010245 | 15 | 333 | 1.6 | 6.4 | 0.00 | 0.08 | 0.00 | 47 | 1006.1 |
| 20260904005739 | 15 | 338 | 3.2 | 8.0 | 0.00 | 0.10 | 0.00 | 47 | 1006.0 |
| 20260904005503 | 15 | 344 | 3.2 | 8.0 | 0.00 | 0.15 | 0.00 | 46 | 1006.0 |
| 20260904004727 | 16 | 347 | 3.2 | 6.4 | 0.00 | 0.18 | 0.00 | 45 | 1006.0 |
| 20260904004221 | 16 | 329 | 3.2 | 6.4 | 0.00 | 0.20 | 0.00 | 45 | 1006.0 |
| 20260904003719 | 16 | 301 | 1.6 | 6.4 | 0.00 | 0.20 | 0.00 | 45 | 1006.0 |
| 20260904003210 | 16 | 261 | 1.6 | 4.8 | 0.00 | 0.23 | 0.00 | 44 | 1006.1 |
| 20260904002702 | 17 | 148 | 0.0 | 3.2 | 0.00 | 0.23 | 0.00 | 43 | 1006.0 |
| 20260904002433 | 17 | 148 | 0.0 | 3.2 | 0.00 | 0.23 | 0.00 | 44 | 1006.0 |
| 20260904001651 | 16 | 148 | 0.0 | 4.8 | 0.00 | 0.23 | 0.00 | 45 | 1006.0 |
| 20260904001146 | 16 | 148 | 1.6 | 4.8 | 0.00 | 0.23 | 0.00 | 46 | 1006.1 |
| 20260904000639 | 16 | 166 | 1.6 | 8.0 | 0.00 | 0.23 | 0.00 | 45 | 1006.0 |
| 20260904000133 | 16 | 171 | 1.6 | 8.0 | 0.00 | 0.23 | 0.00 | 43 | 1006.1 |
| 20260903235628 | 17 | 174 | 1.6 | 6.4 | 0.00 | 0.25 | 0.00 | 45 | 1006.1 |
| 20260903235121 | 17 | 179 | 1.6 | 8.0 | 0.00 | 0.25 | 0.00 | 45 | 1006.1 |
| 20260903234619 | 17 | 149 | 1.6 | 8.0 | 0.00 | 0.28 | 0.00 | 43 | 1006.1 |
| 20260903234109 | 17 | 146 | 3.2 | 11.3 | 0.00 | 0.28 | 0.00 | 44 | 1006.1 |
| 20260903233603 | 17 | 241 | 1.6 | 11.3 | 0.00 | 0.28 | 0.00 | 43 | 1006.1 |
| 20260903233110 | 17 | 161 | 3.2 | 9.7 | 0.00 | 0.28 | 0.00 | 46 | 1006.1 |
| 20260903233105 | 17 | 166 | 1.6 | 9.7 | 0.00 | 0.28 | 0.00 | 44 | 1006.1 |
| 20260903232301 | 17 | 132 | 3.2 | 12.9 | 0.00 | 0.28 | 0.00 | 46 | 1006.2 |
| 20260903232049 | 17 | 132 | 3.2 | 12.9 | 0.00 | 0.28 | 0.00 | 46 | 1006.2 |
| 20260903231540 | 17 | 123 | 1.6 | 12.9 | 0.00 | 0.28 | 0.00 | 46 | 1006.2 |
| 20260903231038 | 17 | 109 | 1.6 | 6.4 | 0.00 | 0.28 | 0.00 | 48 | 1006.2 |
| 20260903230537 | 16 | 74 | 1.6 | 9.7 | 0.00 | 0.28 | 0.00 | 46 | 1006.4 |
| 20260903230320 | 16 | 76 | 3.2 | 9.7 | 0.00 | 0.28 | 0.00 | 47 | 1006.5 |
| 20260903225538 | 16 | 94 | 3.2 | 12.9 | 0.00 | 0.28 | 0.00 | 48 | 1006.6 |
| 20260903225038 | 16 | 146 | 4.8 | 12.9 | 0.00 | 0.28 | 0.00 | 47 | 1006.6 |
| 20260903224817 | 16 | 145 | 4.8 | 12.9 | 0.00 | 0.28 | 0.00 | 48 | 1006.7 |
| 20260903224314 | 16 | 114 | 3.2 | 12.9 | 0.00 | 0.28 | 0.00 | 47 | 1006.8 |
| 20260903223543 | 16 | 130 | 1.6 | 9.7 | 0.00 | 0.30 | 0.00 | 51 | 1006.9 |
| 20260903223038 | 16 | 84 | 1.6 | 6.4 | 0.00 | 0.30 | 0.00 | 51 | 1006.9 |
| 20260903222805 | 16 | 71 | 1.6 | 9.7 | 0.00 | 0.30 | 0.00 | 52 | 1007.0 |
| 20260903222036 | 15 | 42 | 1.6 | 9.7 | 0.00 | 0.30 | 0.00 | 54 | 1007.1 |
| 20260903221535 | 15 | 25 | 1.6 | 8.0 | 0.00 | 0.30 | 0.00 | 52 | 1007.1 |
| 20260903221036 | 15 | 26 | 1.6 | 8.0 | 0.00 | 0.30 | 0.00 | 51 | 1007.2 |
| 20260903220533 | 15 | 74 | 1.6 | 6.4 | 0.00 | 0.30 | 0.00 | 52 | 1007.2 |
| 20260903220033 | 15 | 60 | 1.6 | 9.7 | 0.00 | 0.30 | 0.00 | 52 | 1007.4 |
| 20260903215534 | 15 | 59 | 3.2 | 9.7 | 0.00 | 0.30 | 0.00 | 54 | 1007.5 |
| 20260903215032 | 15 | 92 | 3.2 | 9.7 | 0.00 | 0.30 | 0.00 | 53 | 1007.5 |
| 20260903214531 | 15 | 76 | 1.6 | 9.7 | 0.00 | 0.30 | 0.00 | 54 | 1007.8 |
| 20260903214039 | 15 | 66 | 1.6 | 6.4 | 0.00 | 0.30 | 0.00 | 55 | 1007.8 |
| 20260903213543 | 14 | 306 | 3.2 | 8.0 | 0.00 | 0.30 | 0.00 | 54 | 1007.8 |
| 20260903213039 | 14 | 316 | 3.2 | 8.0 | 0.00 | 0.30 | 0.00 | 56 | 1007.8 |
| 20260903212533 | 14 | 298 | 3.2 | 6.4 | 0.00 | 0.30 | 0.00 | 55 | 1007.9 |
| 20260903212031 | 14 | 317 | 1.6 | 6.4 | 0.00 | 0.30 | 0.00 | 55 | 1007.9 |
| 20260903211538 | 14 | 315 | 3.2 | 6.4 | 0.00 | 0.30 | 0.00 | 56 | 1007.8 |
| 20260903211031 | 14 | 320 | 3.2 | 8.0 | 0.00 | 0.30 | 0.00 | 55 | 1007.9 |
| 20260903210530 | 14 | 17 | 1.6 | 8.0 | 0.00 | 0.30 | 0.00 | 58 | 1007.8 |
| 20260903210031 | 14 | 57 | 3.2 | 8.0 | 0.00 | 0.30 | 0.00 | 56 | 1007.8 |
| 20260903205810 | 13 | 355 | 3.2 | 8.0 | 0.00 | 0.30 | 0.00 | 57 | 1007.7 |
| 20260903205031 | 13 | 5 | 1.6 | 8.0 | 0.00 | 0.30 | 0.00 | 56 | 1007.8 |
| 20260903204537 | 13 | 307 | 1.6 | 8.0 | 0.00 | 0.30 | 0.00 | 53 | 1007.8 |
| 20260903204031 | 13 | 5 | 0.0 | 4.8 | 0.00 | 0.30 | 0.00 | 58 | 1007.8 |
| 20260903203534 | 13 | 330 | 1.6 | 6.4 | 0.00 | 0.30 | 0.00 | 59 | 1007.8 |
| 20260903203029 | 13 | 327 | 3.2 | 8.0 | 0.00 | 0.30 | 0.00 | 57 | 1007.9 |
| 20260903202530 | 13 | 327 | 3.2 | 8.0 | 0.00 | 0.30 | 0.00 | 59 | 1008.0 |
| 20260903202032 | 13 | 340 | 3.2 | 8.0 | 0.00 | 0.30 | 0.00 | 60 | 1008.0 |
| 20260903201528 | 13 | 26 | 1.6 | 4.8 | 0.00 | 0.30 | 0.00 | 62 | 1008.1 |
| 20260903201259 | 13 | 26 | 1.6 | 4.8 | 0.00 | 0.30 | 0.00 | 61 | 1008.1 |
| 20260903200528 | 13 | 30 | 1.6 | 6.4 | 0.00 | 0.30 | 0.00 | 62 | 1008.0 |
| 20260903200016 | 13 | 29 | 3.2 | 8.0 | 0.00 | 0.30 | 0.00 | 64 | 1008.1 |
| 20260903195510 | 13 | 0 | 3.2 | 8.0 | 0.00 | 0.30 | 0.00 | 64 | 1008.1 |
| 20260903195004 | 13 | 5 | 3.2 | 6.4 | 0.00 | 0.30 | 0.00 | 64 | 1008.1 |
| 20260903194732 | 12 | 18 | 3.2 | 6.4 | 0.00 | 0.30 | 0.00 | 63 | 1008.1 |
| 20260903193955 | 12 | 34 | 3.2 | 6.4 | 0.00 | 0.30 | 0.00 | 65 | 1008.2 |
| 20260903193454 | 12 | 336 | 3.2 | 8.0 | 0.00 | 0.30 | 0.00 | 64 | 1008.2 |
| 20260903192954 | 12 | 343 | 3.2 | 8.0 | 0.00 | 0.30 | 0.00 | 63 | 1008.2 |
| 20260903192454 | 12 | 22 | 3.2 | 6.4 | 0.00 | 0.33 | 0.00 | 63 | 1008.1 |
| 20260903192238 | 12 | 36 | 3.2 | 8.0 | 0.00 | 0.33 | 0.00 | 66 | 1008.3 |
| 20260903191456 | 12 | 38 | 3.2 | 9.7 | 0.00 | 0.36 | 0.00 | 66 | 1008.3 |
| 20260903191237 | 12 | 298 | 4.8 | 9.7 | 0.00 | 0.36 | 0.00 | 64 | 1008.3 |
| 20260903190457 | 12 | 338 | 4.8 | 8.0 | 0.00 | 0.36 | 0.00 | 64 | 1008.2 |
| 20260903185952 | 12 | 313 | 4.8 | 9.7 | 0.00 | 0.36 | 0.00 | 65 | 1008.2 |
| 20260903185453 | 12 | 344 | 4.8 | 12.9 | 0.00 | 0.36 | 0.00 | 65 | 1008.3 |
| 20260903184953 | 12 | 342 | 4.8 | 12.9 | 0.00 | 0.36 | 0.00 | 65 | 1008.3 |
| 20260903184727 | 12 | 325 | 4.8 | 12.9 | 0.00 | 0.36 | 0.00 | 65 | 1008.2 |
| 20260903183953 | 12 | 329 | 3.2 | 12.9 | 0.00 | 0.36 | 0.00 | 65 | 1008.3 |
| 20260903183452 | 12 | 346 | 3.2 | 8.0 | 0.00 | 0.36 | 0.00 | 65 | 1008.3 |
| 20260903182953 | 12 | 24 | 1.6 | 8.0 | 0.00 | 0.36 | 0.00 | 68 | 1008.4 |
| 20260903182452 | 12 | 322 | 1.6 | 6.4 | 0.00 | 0.36 | 0.00 | 68 | 1008.4 |
| 20260903181950 | 12 | 26 | 0.0 | 4.8 | 0.00 | 0.36 | 0.00 | 67 | 1008.4 |
| 20260903181448 | 11 | 27 | 1.6 | 6.4 | 0.00 | 0.36 | 0.00 | 68 | 1008.4 |
| 20260903180942 | 11 | 19 | 1.6 | 6.4 | 0.00 | 0.36 | 0.00 | 70 | 1008.4 |
| 20260903180725 | 11 | 348 | 1.6 | 6.4 | 0.00 | 0.36 | 0.00 | 70 | 1008.4 |
| 20260903175931 | 11 | 349 | 3.2 | 8.0 | 0.00 | 0.36 | 0.00 | 70 | 1008.4 |
| 20260903175423 | 11 | 311 | 1.6 | 8.0 | 0.00 | 0.36 | 0.00 | 71 | 1008.5 |
| 20260903174918 | 11 | 321 | 1.6 | 4.8 | 0.00 | 0.36 | 0.00 | 73 | 1008.5 |
| 20260903174653 | 11 | 322 | 1.6 | 4.8 | 0.00 | 0.36 | 0.00 | 74 | 1008.6 |
| 20260903173909 | 10 | 321 | 1.6 | 4.8 | 0.00 | 0.36 | 0.00 | 73 | 1008.6 |
| 20260903173636 | 10 | 321 | 1.6 | 6.4 | 0.00 | 0.36 | 0.00 | 75 | 1008.5 |
| 20260903172854 | 10 | 313 | 1.6 | 6.4 | 0.00 | 0.36 | 0.00 | 75 | 1008.5 |
| 20260903172348 | 10 | 309 | 1.6 | 6.4 | 0.00 | 0.36 | 0.00 | 76 | 1008.4 |
| 20260903171842 | 10 | 313 | 3.2 | 6.4 | 0.00 | 0.36 | 0.00 | 76 | 1008.5 |
| 20260903171336 | 10 | 310 | 3.2 | 6.4 | 0.00 | 0.36 | 0.00 | 76 | 1008.5 |
| 20260903170836 | 10 | 314 | 3.2 | 6.4 | 0.00 | 0.36 | 0.00 | 78 | 1008.4 |
| 20260903170336 | 10 | 331 | 3.2 | 6.4 | 0.00 | 0.36 | 0.00 | 78 | 1008.5 |
| 20260903165847 | 10 | 340 | 1.6 | 6.4 | 0.00 | 0.36 | 0.00 | 78 | 1008.5 |
| 20260903165345 | 10 | 305 | 1.6 | 6.4 | 0.00 | 0.36 | 0.00 | 77 | 1008.5 |
| 20260903164836 | 10 | 308 | 1.6 | 6.4 | 0.00 | 0.36 | 0.00 | 77 | 1008.5 |
| 20260903164336 | 10 | 291 | 1.6 | 6.4 | 0.00 | 0.36 | 0.00 | 77 | 1008.5 |
| 20260903163836 | 10 | 163 | 1.6 | 6.4 | 0.00 | 0.36 | 0.00 | 77 | 1008.5 |
| 20260903163336 | 10 | 142 | 1.6 | 6.4 | 0.00 | 0.36 | 0.00 | 78 | 1008.4 |
| 20260903162838 | 10 | 138 | 1.6 | 6.4 | 0.00 | 0.36 | 0.00 | 78 | 1008.3 |
| 20260903162336 | 10 | 134 | 1.6 | 4.8 | 0.00 | 0.36 | 0.00 | 80 | 1008.3 |
| 20260903161836 | 10 | 133 | 0.0 | 4.8 | 0.00 | 0.36 | 0.00 | 80 | 1008.2 |
| 20260903161334 | 9 | 130 | 1.6 | 4.8 | 0.00 | 0.36 | 0.00 | 81 | 1008.3 |
| 20260903160832 | 9 | 130 | 1.6 | 6.4 | 0.00 | 0.36 | 0.00 | 82 | 1008.4 |
| 20260903160334 | 9 | 129 | 1.6 | 6.4 | 0.00 | 0.36 | 0.00 | 83 | 1008.4 |
| 20260903160118 | 9 | 128 | 1.6 | 6.4 | 0.00 | 0.36 | 0.00 | 83 | 1008.4 |
| 20260903155344 | 8 | 124 | 3.2 | 6.4 | 0.00 | 0.36 | 0.00 | 83 | 1008.5 |
| 20260903154841 | 8 | 123 | 1.6 | 6.4 | 0.00 | 0.36 | 0.00 | 82 | 1008.5 |
| 20260903154325 | 8 | 121 | 1.6 | 6.4 | 0.00 | 0.36 | 0.00 | 83 | 1008.6 |
| 20260903153820 | 8 | 121 | 0.0 | 3.2 | 0.00 | 0.36 | 0.00 | 83 | 1008.6 |
| 20260903153314 | 8 | 121 | 0.0 | 3.2 | 0.00 | 0.36 | 0.00 | 85 | 1008.7 |
| 20260903152815 | 8 | 123 | 0.0 | 3.2 | 0.00 | 0.36 | 0.00 | 86 | 1008.7 |
| 20260903152311 | 7 | 123 | 0.0 | 0.0 | 0.00 | 0.36 | 0.00 | 86 | 1008.5 |
| 20260903151820 | 7 | 123 | 0.0 | 0.0 | 0.00 | 0.36 | 0.00 | 86 | 1008.5 |
| 20260903151317 | 7 | 123 | 0.0 | 4.8 | 0.00 | 0.36 | 0.00 | 86 | 1008.6 |
| 20260903150818 | 7 | 123 | 1.6 | 4.8 | 0.00 | 0.36 | 0.00 | 87 | 1008.6 |
| 20260903150319 | 7 | 128 | 0.0 | 3.2 | 0.00 | 0.36 | 0.00 | 86 | 1008.6 |
| 20260903145817 | 7 | 130 | 0.0 | 1.6 | 0.00 | 0.36 | 0.00 | 86 | 1008.5 |
| 20260903145316 | 7 | 130 | 0.0 | 3.2 | 0.00 | 0.36 | 0.00 | 86 | 1008.6 |
| 20260903144818 | 7 | 130 | 0.0 | 3.2 | 0.00 | 0.36 | 0.00 | 87 | 1008.6 |
| 20260903144544 | 7 | 130 | 0.0 | 0.0 | 0.00 | 0.36 | 0.00 | 87 | 1008.4 |
| 20260903143819 | 7 | 130 | 0.0 | 0.0 | 0.00 | 0.36 | 0.00 | 87 | 1008.4 |
| 20260903143312 | 6 | 130 | 0.0 | 0.0 | 0.00 | 0.36 | 0.00 | 87 | 1008.5 |
| 20260903142833 | 6 | 130 | 0.0 | 4.8 | 0.00 | 0.36 | 0.00 | 87 | 1008.5 |
| 20260903142829 | 6 | 130 | 0.0 | 0.0 | 0.00 | 0.36 | 0.00 | 87 | 1008.5 |
| 20260903142041 | 6 | 130 | 1.6 | 4.8 | 0.00 | 0.36 | 0.00 | 88 | 1008.5 |
| 20260903141312 | 6 | 130 | 1.6 | 8.0 | 0.00 | 0.36 | 0.00 | 88 | 1008.5 |
| 20260903140811 | 6 | 130 | 1.6 | 8.0 | 0.00 | 0.36 | 0.00 | 87 | 1008.5 |
| 20260903140310 | 6 | 133 | 1.6 | 6.4 | 0.00 | 0.36 | 0.00 | 87 | 1008.5 |
| 20260903140026 | 7 | 132 | 3.2 | 8.0 | 0.00 | 0.36 | 0.00 | 87 | 1008.4 |
| 20260903135808 | 7 | 132 | 3.2 | 8.0 | 0.00 | 0.36 | 0.00 | 87 | 1008.4 |
| 20260903135306 | 7 | 131 | 3.2 | 11.3 | 0.00 | 0.36 | 0.00 | 87 | 1008.3 |
| 20260903135025 | 7 | 136 | 3.2 | 11.3 | 0.00 | 0.36 | 0.00 | 87 | 1008.3 |
| 20260903134247 | 7 | 141 | 1.6 | 9.7 | 0.00 | 0.36 | 0.00 | 87 | 1008.3 |
| 20260903133743 | 7 | 134 | 0.0 | 9.7 | 0.00 | 0.36 | 0.00 | 87 | 1008.3 |
| 20260903133235 | 7 | 134 | 0.0 | 0.0 | 0.00 | 0.36 | 0.00 | 87 | 1008.3 |
| 20260903132729 | 7 | 134 | 0.0 | 3.2 | 0.00 | 0.36 | 0.00 | 88 | 1008.4 |
| 20260903132223 | 6 | 135 | 1.6 | 4.8 | 0.00 | 0.36 | 0.00 | 89 | 1008.3 |
| 20260903131719 | 6 | 136 | 1.6 | 4.8 | 0.00 | 0.36 | 0.00 | 89 | 1008.4 |
| 20260903131211 | 6 | 136 | 0.0 | 4.8 | 0.00 | 0.36 | 0.00 | 89 | 1008.4 |
| 20260903130707 | 6 | 136 | 1.6 | 6.4 | 0.00 | 0.36 | 0.00 | 89 | 1008.4 |
| 20260903130159 | 6 | 136 | 3.2 | 6.4 | 0.00 | 0.36 | 0.00 | 90 | 1008.4 |
| 20260903125653 | 6 | 128 | 1.6 | 6.4 | 0.00 | 0.36 | 0.00 | 90 | 1008.4 |
| 20260903125147 | 6 | 129 | 0.0 | 4.8 | 0.00 | 0.36 | 0.00 | 89 | 1008.3 |
| 20260903124915 | 6 | 129 | 3.2 | 6.4 | 0.00 | 0.36 | 0.00 | 89 | 1008.3 |
| 20260903124135 | 7 | 129 | 3.2 | 6.4 | 0.00 | 0.36 | 0.00 | 89 | 1008.3 |
| 20260903123629 | 6 | 136 | 1.6 | 6.4 | 0.00 | 0.36 | 0.00 | 90 | 1008.3 |
| 20260903123124 | 6 | 158 | 0.0 | 3.2 | 0.00 | 0.36 | 0.00 | 90 | 1008.2 |
| 20260903122620 | 6 | 160 | 0.0 | 0.0 | 0.00 | 0.36 | 0.00 | 89 | 1008.2 |
| 20260903122112 | 6 | 160 | 0.0 | 0.0 | 0.00 | 0.36 | 0.00 | 89 | 1008.3 |
| 20260903121609 | 6 | 160 | 0.0 | 0.0 | 0.00 | 0.36 | 0.00 | 88 | 1008.3 |
| 20260903121059 | 6 | 160 | 0.0 | 0.0 | 0.00 | 0.36 | 0.00 | 87 | 1008.3 |
| 20260903120553 | 6 | 160 | 0.0 | 0.0 | 0.00 | 0.36 | 0.00 | 86 | 1008.3 |
| 20260903120047 | 6 | 160 | 0.0 | 0.0 | 0.00 | 0.36 | 0.00 | 86 | 1008.3 |
| 20260903115542 | 7 | 159 | 0.0 | 0.0 | 0.00 | 0.36 | 0.00 | 85 | 1008.3 |
| 20260903115035 | 7 | 159 | 0.0 | 0.0 | 0.00 | 0.36 | 0.00 | 85 | 1008.3 |
| 20260903114529 | 7 | 159 | 0.0 | 0.0 | 0.00 | 0.36 | 0.00 | 86 | 1008.3 |
| 20260903114024 | 7 | 159 | 0.0 | 6.4 | 0.00 | 0.36 | 0.00 | 86 | 1008.4 |
| 20260903113517 | 7 | 159 | 0.0 | 6.4 | 0.00 | 0.36 | 0.00 | 86 | 1008.4 |
| 20260903113011 | 7 | 278 | 0.0 | 3.2 | 0.00 | 0.36 | 0.00 | 86 | 1008.3 |
| 20260903112505 | 7 | 279 | 0.0 | 0.0 | 0.00 | 0.36 | 0.00 | 86 | 1008.4 |